AirNav   Air Wisconsin Up To $57,000 Bonus
 
 487 users online  

L54 Agua Caliente Springs Airport
Agua Caliente Springs, California, USA

GOING TO AGUA CALIENTE SPRINGS?


FAA INFORMATION EFFECTIVE 09 SEPTEMBER 2021

Location

FAA Identifier: L54
Lat/Long: 32-57-20.5000N 116-17-41.0000W
32-57.341667N 116-17.683333W
32.9556944,-116.2947222
(estimated)
Elevation: 1220 ft. / 372 m (estimated)
Variation: 13E (1985)
From city: 1 mile NE of AGUA CALIENTE SPRINGS, CA
Time zone: UTC -7 (UTC -8 during Standard Time)
Zip code: 92036

Airport Operations

Airport use: Open to the public
Activation date: 07/1960
Control tower: no
ARTCC: LOS ANGELES CENTER
FSS: SAN DIEGO FLIGHT SERVICE STATION
NOTAMs facility: SAN (NOTAM-D service available)
Attendance: UNATNDD
Pattern altitude: 2020 ft. MSL
Wind indicator: yes
Segmented circle: yes

Airport Communications

CTAF: 122.9
WX AWOS-3P at L08 (18 nm N): 126.575 (760-767-3308)

Nearby radio navigation aids

VOR radial/distance  VOR name  Freq  Var
JLIr112/18.4JULIAN VORTAC114.0015E

Airport Services

Parking: tiedowns
Airframe service: NONE
Powerplant service: NONE
Bottled oxygen: NONE
Bulk oxygen: NONE

Runway Information

Runway 11/29

Dimensions: 2500 x 60 ft. / 762 x 18 m
Surface: asphalt, in fair condition
Weight bearing capacity: 
Single wheel: 12.0
Operational restrictions: CLSD SS-SR; NOT LGTD.
RUNWAY 11  RUNWAY 29
Latitude: 32-57.439708N32-57.244717N
Longitude: 116-17.898627W116-17.467657W
Traffic pattern: leftright
HILL 0.5 MI W OF AP.
Runway heading: 105 magnetic, 118 true285 magnetic, 298 true
Markings: basic, in good conditionbasic, in good condition
Runway end identifier lights: nono
Obstructions: 460 ft. hill, 2500 ft. from runway, 5:1 slope to clearnone

Airport Ownership and Management from official FAA records

Ownership: Publicly-owned
Owner: COUNTY OF SAN DIEGO
1960 JOE CROSSON DRIVE
EL CAJON, CA 92020-1142
Phone 619-956-4800
Manager: MEADOW CHASE
SAN DIEGO COUNTY AIRPORTS, 1960 JOE CROSSON DRIVE
EL CAJON, CA 92020
Phone 760-767-7415
AMGR OFC AT BORREGO VALLEY AIRPORT.

Airport Operational Statistics

Aircraft operations: avg 64/week *
98% transient general aviation
2% military
* for 12-month period ending 30 April 2021

Additional Remarks

HAZARDOUS DURING RAINS OR FLASH FLOODS.
OBSTRN PART 77-MTNS S & W OF RWY, DIRT BERM, DITCH, SAND BOTH SIDES OF RWY.
ACFT TIED DOWN WITHIN PRIMARY SFC.
WIND PERMITTING USE OF RY 29 FOR LANDING AND RY 11 FOR DEPARTURE RECOMMENDED DUE TO 460 FT HILL 1/2 MILE WEST OF AIRPORT
ACFT SHALL SELF ANNC ON CTAF PRIOR TO LDG OR DEP.
PPR FOR ALL MIL ACFT, COPTER SKID/RUN-ON LDG PROHIBITED; CTC AMGR.
FOR CD CTC LOS ANGELES ARTCC AT 661-575-2079.

Instrument Procedures

There are no published instrument procedures at L54.

Some nearby airports with instrument procedures:

L08 - Borrego Valley Airport (18 nm N)
KRNM - Ramona Airport (32 nm W)
KNJK - El Centro NAF Airport (Vraciu Field) (32 nm E)
KSEE - Gillespie Field Airport (35 nm W)
KIPL - Imperial County Airport (37 nm E)
 
Loc | Ops | Rwys | IFR | FBO | Links
Com | Nav | Svcs | Stats | Notes
Area around L54 (Agua Caliente Springs Airport)
 
Road maps at: MapQuest Bing Google
 
Aerial photo
WARNING: Photo may not be current or correct
Aerial photo of L54 (Agua Caliente Springs Airport)
Do you have a better or more recent aerial photo of Agua Caliente Springs Airport that you would like to share? If so, please send us your photo.

 
Sectional chart

 
Airport distance calculator
Flying to Agua Caliente Springs Airport? Find the distance to fly.

From to L54

Sunrise and sunset
Times for 18-Sep-2021
 Local
(UTC-7)
 Zulu
(UTC)
Morning civil twilight06:0713:07
Sunrise06:3213:32
Sunset18:4701:47
Evening civil twilight19:1202:12

Current date and time
Zulu (UTC)  18-Sep-2021 07:18:23
Local (UTC-7)  18-Sep-2021 00:18:23
 
METAR
KL08 
18nm N 
180655Z AUTO 28004KT 10SM BKN095 30/01 A2991 RMK AO2
KRNM 
32nm W 
180653Z AUTO 00000KT 10SM FEW120 15/13 A3004 RMK AO2 SLP161 T01500128
KNJK 
33nm E 
180656Z AUTO 26006KT 10SM CLR 29/06 A2988 RMK AO2 SLP135 T02940056 $
KSEE 
35nm W 
180655Z AUTO 29004KT 10SM CLR 18/14 A3002 RMK AO2
TAF
KNJK 
33nm E 
1715/1815 VRB04KT 9999 FEW150 QNH2980INS FM172200 24007KT 9999 FEW150 QNH2972INS TEMPO 1723/1804 21010G20KT FM180600 VRB05KT 9999 SKC QNH2979INS T39/1723Z T18/1813Z FS30152
KIPL 
37nm E 
180520Z 1806/1906 26006KT P6SM FEW120 SCT200 FM180900 VRB04KT P6SM FEW120 FM182100 27011KT P6SM SKC
NOTAMs
Click for the latest NOTAMs
NOTAMs are issued by the DoD/FAA and will open in a separate window not controlled by AirNav.

 

 
 

Things to do: Attractions on or near the airport

  
 Business Name 
 
 Contact 
 
 Services / Description 
 
Distance
 
Comments
  
Agua Caliente County Park no information available

If you are affiliated with Agua Caliente County Park and would like to show here your services, contact info, web link, logo, and more, click here
0.2 miles  
   write
 

Would you like to see your business listed on this page?

 If your business provides an interesting product or service to pilots, flight crews, aircraft, or users of the Agua Caliente Springs Airport, you should consider listing it here.  To start the listing process, click on the button below
 
Add a business
 

Other Pages about Agua Caliente Springs Airport

www.co.san-diego.ca.us/...
 
Update a link
 
Copyright © AirNav, LLC. All rights reserved. Privacy Policy  Contact